Location: Ajisawe
(8.4333°N, 4.3833°E)
Time: 22:34:15
(UTC+00:00)

Vanguard 2 Rocket - Pass Details

Date: 20 April 2021
Orbit: 554 x 3326 km, 32.9° (Epoch: 16 May)

Event Time Altitude Azimuth Distance (km) Brightness Sun altitude
Rises 07:47:52 0° 201° (SSW) 4,101 10.0 32.5°
Reaches altitude 10° 07:50:57 10° 187° (S) 3,492 9.8 33.3°
Maximum altitude 07:58:21 25° 134° (SE) 3,257 10.5 35.1°
Drops below altitude 10° 08:09:16 10° 86° (E) 5,331 12.1 37.8°
Sets 08:15:25 0° 75° (ENE) 6,774 12.2 39.3°
